Regional Weather Roundup
Issued by NWS

Home | Current Version | Previous Version | Graphics & Text | Print | Product List | Glossary On
Versions: 1 2 3 4 5 6 7 8 9 10 11 12 13 14 15 16 17 18 19 20 21 22 23 24 25 26 27 28 29 30 31 32 33 34 35 36 37 38 39 40 41 42 43 44 45 46 47 48 49 50
000
ASUS43 KLOT 240903
RWRIL

ILLINOIS REGIONAL WEATHER ROUNDUP
NATIONAL WEATHER SERVICE CHICAGO/ROMEOVILLE IL
400 AM CDT TUE MAY 24 2016

NOTE: "FAIR" INDICATES FEW OR NO CLOUDS BELOW 12,000 FEET WITH NO
SIGNIFICANT WEATHER AND/OR OBSTRUCTIONS TO VISIBILITY.

* THESE STATIONS ARE NOT UNDER NWS QUALITY CONTROL. THEY ALSO MAY NOT
  REPORT WEATHER SUCH AS PRECIPITATION OR FOG.

ILZ001-002-007-009-015-016-024-241000-
NORTHWEST ILLINOIS

CITY           SKY/WX    TMP DP  RH WIND       PRES   REMARKS
MOLINE         PTCLDY    67  50  54 S7        29.91S
STERLING*      CLOUDY    62  51  67 CALM      29.95R
$$

ILZ003-004-008-010-011-017-018-241000-
NORTH CENTRAL ILLINOIS

CITY           SKY/WX    TMP DP  RH WIND       PRES   REMARKS
ROCKFORD       CLOUDY    60  48  64 CALM      29.97R
FREEPORT*      CLEAR     55  47  74 S6        29.95R
ROCHELLE*      CLOUDY    58  48  69 S9        29.96R
DE KALB*       MOCLDY    59  49  69 SW8       29.97R
$$

ILZ005-006-012>014-019>023-241000-
NORTHEAST ILLINOIS

CITY           SKY/WX    TMP DP  RH WIND       PRES   REMARKS
CHICAGO-OHARE  CLOUDY    66  45  46 S10       29.95S
CHICAGO-MIDWAY CLOUDY    66  43  43 SW7       29.96S
AURORA         MOCLDY    60  48  64 S3        29.96S
LANSING*       MOCLDY    57  44  62 SW3       29.98S
WAUKEGAN       CLOUDY    60  45  57 SW8       29.94R
DUPAGE AIRPORT CLOUDY    58  46  64 S5        29.95S
WHEELING       CLOUDY    63  45  51 S6        29.96S
MORRIS*        CLOUDY    61  47  58 CALM      29.96R
NORTHERLY ISL    N/A     67  41  38 S5          N/A
NORTHERLY ISL    N/A     67  41  38 S5          N/A
$$

LMZ740>746-241000-
SOUTHERN LAKE MICHIGAN

STATION/POSITION SKY/WX   TEMP    WIND        PRES    VSBY  WAVE
                          AIR SEA DIR/SP/G                  HT/PER
                          (F)     (DEG/KT/KT) (MB)    (MI)  (FT/S)
SOUTHERN BUOY              54 48  170/ 10/ 12 1013.8          1
WILMETTE HARBOR            63 55  230/ 10/ 12   N/A           1/ 2
HARRISON CRIB              69     200/ 17/ 17   N/A
BURNHAM HARBOR             67     180/  5/  8   N/A
CALUMET HARBOR             65     190/  5/  8 1014.0R
BURNS HARBOR               64     190/  9/ 14 1015.2S
MICHIGAN CITY              66     160/ 13/ 15   N/A
MICHIGAN CITY 6N           60 56  180/  6/  8   N/A           1
ST. JOSEPH                 60 56  170/  8/  8   N/A           1
$$

ILZ025>027-034>036-040-047-049-050-058-095>099-241000-
WEST-CENTRAL ILLINOIS

CITY           SKY/WX    TMP DP  RH WIND       PRES   REMARKS
QUINCY         CLOUDY    65  53  65 S7        29.93S
MACOMB*        MOCLDY    64  53  67 S8        29.96R
PITTSFIELD*    CLOUDY    64  56  75 S6        29.96S
$$

ILZ028>032-037-038-041>044-048-051>054-059>061-241000-
CENTRAL ILLINOIS

CITY           SKY/WX    TMP DP  RH WIND       PRES   REMARKS
BLOOMINGTON    CLOUDY    61  52  72 S9        29.99F
DECATUR        CLOUDY    63  50  62 S7        29.99S
PEORIA         PTCLDY    61  51  70 S6        29.96R
LINCOLN*       PTCLDY    59  54  83 CALM      29.97F
SPRINGFIELD    PTCLDY    61  54  77 S5        29.97S
TAYLORVILLE    NOT AVBL
$$

ILZ033-039-045-046-055>057-062-063-241000-
EAST-CENTRAL ILLINOIS

CITY           SKY/WX    TMP DP  RH WIND       PRES   REMARKS
CHAMPAIGN      CLEAR     56  47  71 S6        30.00S
MATTOON        CLEAR     63  47  55 S7        30.01R
$$

ILZ079-100>102-241000-
SOUTHWEST ILLINOIS

CITY           SKY/WX    TMP DP  RH WIND       PRES   REMARKS
ALTON          CLOUDY    59  55  88 E5        29.97F
CAHOKIA*       CLOUDY    61  57  87 SE5       29.97S
SPARTA*        CLOUDY    66  55  67 SW3       30.00S
$$

ILZ064>066-069>071-074>076-080>082-084>086-088>090-092>094-241000-
SOUTH-CENTRAL ILLINOIS

CITY           SKY/WX    TMP DP  RH WIND       PRES   REMARKS
CARBONDALE     MOCLDY    60  58  92 CALM      30.00R
CAIRO*         CLOUDY    61  60  95 CALM      30.00R
EFFINGHAM*     CLEAR     56  55  94 E3        30.02S
MT. VERNON     PTCLDY    54  48  82 CALM      30.01S
SALEM*         PTCLDY    63  53  69 SE3       30.00S
$$

ILZ067-068-072-073-078-083-087-091-241000-
SOUTHEAST ILLINOIS

CITY           SKY/WX    TMP DP  RH WIND       PRES   REMARKS
LAWRENCEVILLE  CLEAR     59  51  75 CALM      30.03R
FLORA*         CLEAR     57  53  88 CALM      30.02R
HARRISBURG*    CLOUDY    59  54  84 CALM      30.02R
ROBINSON*      CLEAR     52  51  98 CALM      30.04R
CARMI*         CLEAR     59  54  82 SE3       30.02R
$$

ABBREVIATIONS USED IN REMARKS
   TC - TEMPERATURE IN CELSIUS
  WCI - WIND CHILL INDEX
   HX - HEAT INDEX
  VSB - VISIBILITY
$$




USA.gov is the U.S. government's official web portal to all federal, state and local government web resources and services.